Station OWXO1 - Old Woman Creek, Old Woman Creek Reserve, OH Image indicating link to RSS feed of recent meteorological observations for station OWXO1


Conditions at OWXO1 as of
(8:45 pm EDT on 07/13/2024)
0045 GMT on 07/14/2024:
     

Click on the graph icon in the table below to see a time series plot of the last five days of that observation.

5-day plot - Wind Speed Wind Speed (WSPD): 0.0 kts
5-day plot - Atmospheric Pressure Atmospheric Pressure (PRES):30.12 in
5-day plot - Air Temperature Air Temperature (ATMP): 73.6 °F
5-day plot - Dew Point Dew Point (DEWP): 68.5 °F
5-day plot - Wind Speed at 10 Meters Wind Speed at 10 meters (WSPD10M): 0.0 kts
5-day plot - Wind Speed at 20 Meters Wind Speed at 20 meters (WSPD20M): 0.0 kts
5-day plot -  Wind Speed, Wind Gust and Atmospheric Pressure Combined plot of Wind Speed, Gust, and Air Pressure
Previous observations
TIME
(EDT)
5-day plot - Wind Direction
WDIR
 
5-day plot - Wind Speed
WSPD
kts
5-day plot - Wind Gust
GST
kts
5-day plot - Wave Height
WVHT
ft
5-day plot - Dominant Wave Period
DPD
sec
5-day plot - Average Wave Period
APD
sec
5-day plot - Mean Wave Direction
MWD
 
5-day plot - Atmospheric Pressure
PRES
in
5-day plot - Pressure Tendency
PTDY
in
5-day plot - Air Temperature
ATMP
°F
5-day plot - Water Temperature
WTMP
°F
5-day plot - Dew Point
DEWP
°F
5-day plot - Salinity
SAL
psu
5-day plot - Visibility
VIS
nmi
5-day plot - Tide (above MLLW)
TIDE
ft
2024-07-13 08:30 pm- 0.0-----30.12- 75.4- 68.5---
2024-07-13 08:15 pm- 0.0-----30.12- 77.5- 68.0---
2024-07-13 08:00 pm- 0.0-----30.12-0.03 79.2- 68.0---
2024-07-13 07:45 pm- 0.0-----30.12- 80.2- 69.1---
2024-07-13 07:30 pm- 0.0-----30.12- 79.7- 68.5---
2024-07-13 07:15 pmENE 1.9-----30.12- 79.5- 67.8---
2024-07-13 07:00 pmENE 1.9-----30.12-0.03 79.7- 68.0---
2024-07-13 06:45 pm NE 2.9-----30.12- 79.2- 68.0---
2024-07-13 06:30 pmENE 2.9-----30.12- 78.8- 68.9---
2024-07-13 06:15 pm NE 2.9-----30.15- 79.2- 70.0---
2024-07-13 06:00 pm NE 4.1-----30.15+0.00 78.8- 69.6---
2024-07-13 05:45 pm NE 4.1-----30.15- 79.0- 70.5---
2024-07-13 05:30 pmENE 4.1-----30.15- 79.0- 70.5---
2024-07-13 05:15 pm NE 4.1-----30.15- 79.3- 71.8---
2024-07-13 05:00 pm NE 2.9-----30.15-0.03 79.3- 72.1---
2024-07-13 04:45 pm NE 4.1-----30.15- 79.3- 72.9---
2024-07-13 04:30 pm NE 4.1-----30.15- 79.2- 72.7---
2024-07-13 04:15 pm NE 4.1-----30.15- 79.5- 72.7---
2024-07-13 04:00 pmNNE 2.9-----30.15-0.03 79.5- 72.7---
2024-07-13 03:45 pmNNE 2.9-----30.15- 80.1- 73.2---
2024-07-13 03:30 pmNNE 1.9-----30.15- 80.1- 73.6---
2024-07-13 03:15 pm NE 2.9-----30.15- 79.7- 73.6---
2024-07-13 03:00 pm NE 2.9-----30.15-0.03 79.7- 73.2---
2024-07-13 02:45 pm N 4.1-----30.15- 79.7- 72.9---
2024-07-13 02:30 pm N 2.9-----30.18- 79.5- 72.7---
2024-07-13 02:15 pm N 4.1-----30.18- 79.9- 72.7---
2024-07-13 02:00 pm N 2.9-----30.18+0.00 80.1- 72.7---
2024-07-13 01:45 pmNNE 4.1-----30.18- 79.5- 72.7---
2024-07-13 01:30 pmNNE 2.9-----30.18- 80.2- 73.4---
2024-07-13 01:15 pmNNE 2.9-----30.18- 80.6- 73.6---
2024-07-13 01:00 pm N 4.1-----30.18+0.00 79.9- 72.7---
2024-07-13 12:45 pm N 2.9-----30.18- 79.7- 72.5---
2024-07-13 12:30 pm N 2.9-----30.18- 79.5- 72.3---
2024-07-13 12:15 pm N 1.9-----30.18- 79.5- 72.7---
2024-07-13 12:00 pmNNE 2.9-----30.18+0.00 78.6- 72.1---
2024-07-13 11:45 amNNE 2.9-----30.18- 78.8- 72.0---
2024-07-13 11:30 am N 1.9-----30.18- 78.4- 71.2---
2024-07-13 11:15 am N 1.9-----30.18- 78.1- 70.9---
2024-07-13 11:00 am N 1.9-----30.18+0.00 78.1- 70.9---
2024-07-13 10:45 am N 1.9-----30.18- 77.5- 70.0---
2024-07-13 10:30 am N 1.9-----30.18- 77.7- 69.8---
2024-07-13 10:15 amNNE 1.9-----30.18- 78.4- 70.5---
2024-07-13 10:00 amNNE 1.0-----30.18+0.03 78.4- 70.5---
2024-07-13 09:45 amNNE 1.0-----30.18- 77.7- 69.8---
2024-07-13 09:30 am- 0.0-----30.18- 78.8- 70.3---
2024-07-13 09:15 am- 0.0-----30.18- 77.5- 70.0---
2024-07-13 09:00 am- 0.0-----30.18+0.03 76.8- 69.6---
2024-07-13 08:45 am- 0.0-----30.18- 76.1- 69.3---
2024-07-13 08:30 am- 0.0-----30.18- 73.0- 68.7---
2024-07-13 08:15 am- 0.0-----30.18- 70.9- 67.8---
2024-07-13 08:00 am- 0.0-----30.18+0.03 68.4- 65.3---
2024-07-13 07:45 am- 0.0-----30.18- 67.8-----
2024-07-13 07:30 am- 0.0-----30.18- 66.4-----
2024-07-13 07:15 am- 0.0-----30.18- 65.8- 65.5---
2024-07-13 07:00 am- 0.0-----30.15+0.03 65.3- 64.9---
2024-07-13 06:45 am- 0.0-----30.15- 64.6- 64.2---
2024-07-13 06:30 am- 0.0-----30.15- 64.4- 64.0---
2024-07-13 06:15 am- 0.0-----30.15- 64.4- 64.0---
2024-07-13 06:00 am- 0.0-----30.15+0.03 64.4- 64.0---
2024-07-13 05:45 am- 0.0-----30.15- 64.4- 64.0---
2024-07-13 05:30 am- 0.0-----30.15- 64.8- 64.4---
2024-07-13 05:15 am- 0.0-----30.15- 65.1- 64.8---
2024-07-13 05:00 am- 0.0-----30.15+0.03 65.1- 64.8---
2024-07-13 04:45 am- 0.0-----30.15- 64.9- 64.6---
2024-07-13 04:30 am- 0.0-----30.12- 64.8- 64.4---
2024-07-13 04:15 am- 0.0-----30.12- 64.8- 64.2---
2024-07-13 04:00 am- 0.0-----30.12-0.03 64.6- 64.0---
2024-07-13 03:45 am- 0.0-----30.12- 64.6- 64.0---
2024-07-13 03:30 am- 0.0-----30.12- 64.9- 64.4---
2024-07-13 03:15 am- 0.0-----30.12- 64.9- 64.4---
2024-07-13 03:00 am- 0.0-----30.12+0.00 65.1- 64.2---
2024-07-13 02:45 am- 0.0-----30.12- 65.1- 64.2---
2024-07-13 02:30 am- 0.0-----30.12- 65.1- 64.0---
2024-07-13 02:15 am- 0.0-----30.12- 65.3- 64.2---
2024-07-13 02:00 am- 0.0-----30.12+0.00 65.5- 64.0---
2024-07-13 01:45 am- 0.0-----30.15- 65.3- 63.5---
2024-07-13 01:30 am- 0.0-----30.15- 65.5- 64.0---
2024-07-13 01:15 am- 0.0-----30.12- 65.7- 64.2---
2024-07-13 01:00 am- 0.0-----30.15+0.03 65.8- 64.4---
2024-07-13 12:45 am- 0.0-----30.15- 66.0- 64.2---
2024-07-13 12:30 am- 0.0-----30.15- 66.2- 64.4---
2024-07-13 12:15 am- 0.0-----30.15- 66.4- 64.4---
2024-07-13 12:00 am- 0.0-----30.12+0.00 66.6- 64.8---
2024-07-12 11:45 pm- 0.0-----30.12- 66.9- 64.9---
2024-07-12 11:30 pm- 0.0-----30.12- 67.1- 65.1---
2024-07-12 11:15 pm- 0.0-----30.12- 67.3- 65.3---
2024-07-12 11:00 pm- 0.0-----30.12+0.00 67.6- 65.3---
2024-07-12 10:45 pm- 0.0-----30.12- 67.6- 65.3---
2024-07-12 10:30 pm- 0.0-----30.12- 67.8- 65.1---
2024-07-12 10:15 pm- 0.0-----30.12- 68.0- 65.3---
2024-07-12 10:00 pm- 0.0-----30.12+0.00 68.5- 65.3---